This demonstration page uses our WeatherBlox Daily Observations layout. Learn more.

Left ArrowRight Arrow

44.8408, -93.29828

Hourly Observations for September 19, 2017

Temp ( °F °C ) Dew Point ( °F °C ) Humidity (%) Winds ( mph kmh ) Pressure ( in mb ) Visibility ( mi km ) Precip ( " mm )
12:53 am 00:53 Cloudy 59 15 57 13.9 93 93 SE 7 11 29.95 1014 10 16 0.00 0.00
1:53 am 01:53 Cloudy 59 15 57 13.9 93 93 SE 7 11 29.94 1014 10 16 0.00 0.00
2:27 am 02:27 Cloudy 60 15.6 58 14.4 93 93 SE 7 11 29.94 1014 10 16 0.00 0.00
2:53 am 02:53 Cloudy 60 15.6 58 14.4 93 93 ESE 7 11 29.93 1014 10 16 0.00 0.00
3:53 am 03:53 Cloudy 60 15.6 58 14.4 93 93 ESE 7 11 29.92 1013 10 16 0.00 0.00
4:53 am 04:53 Cloudy 60 15.6 58 14.4 93 93 ESE 7 11 29.92 1013 10 16 0.00 0.00
5:10 am 05:10 Cloudy 60 15.6 58 14.4 93 93 SE 8 13 29.91 1013 10 16 0.00 0.00
5:53 am 05:53 Cloudy 60 15.6 58 14.4 93 93 ESE 7 11 29.92 1013 10 16 0.00 0.00
6:24 am 06:24 Cloudy 60 15.6 58 14.4 93 93 ESE 8 13 29.91 1013 9 14 0.00 0.00
6:50 am 06:50 Partly Cloudy 61 16 57 14 88 88 SE 8 13 29.91 1013 10 16 0.00 0.00
6:53 am 06:53 Mostly Clear 60 15.6 58 14.4 93 93 SE 7 11 29.92 1013 9 14 0.00 0.00
7:19 am 07:19 Mostly Cloudy 60 15.6 58 14.4 93 93 SE 7 11 29.91 1013 10 16 0.00 0.00
7:46 am 07:46 Mostly Cloudy 60 15.6 59 15 96 96 SE 8 13 29.91 1013 8 13 0.00 0.00
7:53 am 07:53 Mostly Cloudy 61 16.1 59 15 93 93 ESE 9 15 29.92 1013 8 13 0.00 0.00
8:53 am 08:53 Mostly Sunny 63 17.2 59 15 87 87 SE 12 19 29.90 1013 8 13 0.00 0.00
9:53 am 09:53 Mostly Sunny 66 18.9 61 16.1 84 84 SE 12 19 29.90 1012 10 16 0.00 0.00
10:53 am 10:53 Mostly Sunny 70 21.1 63 17.2 79 79 SE 12 19 29.88 1012 10 16 0.00 0.00
11:22 am 11:22 Mostly Cloudy 72 22.2 64 17.8 76 76 ESE 10 17 29.85 1011 10 16 0.00 0.00
11:53 am 11:53 Mostly Cloudy 72 22.2 64 17.8 76 76 SE 12 19 29.88 1012 10 16 0.00 0.00
12:53 pm 12:53 Mostly Cloudy 75 23.9 65 18.3 71 71 SSE 15 24 29.85 1011 10 16 0.00 0.00
1:53 pm 13:53 Mostly Cloudy 77 25 64 17.8 64 64 SE 16 26 29.81 1009 10 16 0.00 0.00
2:53 pm 14:53 Mostly Cloudy 78 25.6 63 17.2 60 60 SE 14 22 29.78 1009 10 16 0.00 0.00
3:53 pm 15:53 Mostly Cloudy 79 26.1 63 17.2 58 58 SE 16 26 29.76 1008 10 16 0.00 0.00
4:53 pm 16:53 Mostly Cloudy 78 25.6 63 17.2 60 60 SE 16 26 29.73 1007 10 16 0.00 0.00
5:53 pm 17:53 Cloudy 77 25 63 17.2 62 62 SE 16 26 29.70 1006 10 16 0.00 0.00
6:53 pm 18:53 Cloudy 76 24.4 63 17.2 64 64 SE 16 26 29.68 1005 10 16 0.00 0.00
7:53 pm 19:53 Cloudy 75 23.9 63 17.2 66 66 SE 15 24 29.68 1005 10 16 0.00 0.00
8:53 pm 20:53 Mostly Cloudy 74 23.3 63 17.2 69 69 SE 14 22 29.69 1005 10 16 0.00 0.00
9:53 pm 21:53 Mostly Cloudy 72 22.2 63 17.2 73 73 SE 17 28 29.65 1004 10 16 0.00 0.00
10:53 pm 22:53 Mostly Cloudy 72 22.2 64 17.8 76 76 SE 14 22 29.65 1004 10 16 0.00 0.00
11:53 pm 23:53 Mostly Cloudy 72 22.2 64 17.8 76 76 SE 13 20 29.65 1004 10 16 0.00 0.00

Powered by AerisWeather